Terminal Aerodrome Forecast
Issued by NWS Sterling, VA

Current Version | Previous Version | Graphics & Text | Print | Product List | Glossary On
Versions: 1 2 3 4 5 6 7 8 9 10 11 12 13 14 15 16 17 18 19 20 21 22 23 24 25 26 27 28 29 30 31
000
FTUS41 KLWX 292036 AAA
TAFDCA
TAF AMD
KDCA 292036Z 2921/3018 18010KT P6SM SCT070
     FM300100 16006KT P6SM SCT080
     FM301700 18012KT P6SM BKN100=

USA.gov is the U.S. government's official web portal to all federal, state and local government web resources and services.